Regional Weather Roundup
Issued by NWS

Home | Current Version | Previous Version | Text Only | Print | Product List | Glossary Off
Versions: 1 2 3 4 5 6 7 8 9 10 11 12 13 14 15 16 17 18 19 20 21 22 23 24 25 26 27 28 29 30 31 32 33 34 35 36 37 38 39 40 41 42 43 44 45 46 47 48 49 50

000
ASUS43 KIND 300709
RWRIN

WEATHER ROUNDUP FOR INDIANA
NATIONAL WEATHER SERVICE INDIANAPOLIS IN
300 AM EDT TUE AUG 30 2016

NOTE: "FAIR" INDICATES FEW OR NO CLOUDS BELOW 12,000 FEET WITH NO
SIGNIFICANT WEATHER AND/OR OBSTRUCTIONS TO VISIBILITY.

* - STATION DOES NOT REPORT WEATHER SUCH AS PRECIPITATION OR FOG.

+ - STATION NOT QUALITY CONTROLLED BY THE NATIONAL WEATHER SERVICE.
    USE DATA WITH CAUTION...ESPECIALLY DEWPOINT AND RELATIVE
    HUMIDITY OBSERVATIONS.

INZ001>003-010>013-019-020-300800-
NORTHWEST INDIANA

CITY           SKY/WX    TMP DP  RH WIND       PRES   REMARKS
GARY /AIRPORT/ FOG       72  72 100 CALM      30.18S VSB 3/4
KNOX *+        CLEAR     68  59  73 CALM      30.18S
LA PORTE +     PTCLDY   N/A N/A N/A CALM      30.20S
MICHIGAN CITY+ CLOUDY    70  70 100 MISG      30.19S FOG
MONTICELLO +   CLEAR     73  68  85 CALM      30.17S
RENSSELAER +   CLEAR     70  70 100 CALM      30.18S FOG
VALPARAISO     CLEAR     71  69  93 CALM      30.19S

$$

LMZ046-743>745-300800-
SOUTHERN LAKE MICHIGAN

STATION/POSITION TIME  TEMP    WIND        PRES    WAVE
                       AIR SEA DIR/SP/G            HT
                 (UTC) (F)     (DEG/KT/KT) (MB)    (FT)
BURNS HARBOR     0603   75     140/  3/  7 1022.4R
MICHIGAN CITY    0600   76     130/  6/  7   N/A
5NW MICH CITY    0700   74 75  200/  2/  2   N/A     0

$$

INZ004-005-014>016-021>024-300800-
NORTH CENTRAL INDIANA

CITY           SKY/WX    TMP DP  RH WIND       PRES   REMARKS
GOSHEN         CLOUDY    72  67  84 SE6       30.20S
LOGANSPORT +   CLEAR     70  68  94 CALM      30.19S
ROCHESTER +    CLEAR     72  72 100 CALM      30.20R
SOUTH BEND     CLOUDY    74  70  87 SE3       30.20R
WARSAW +       CLEAR     68  68 100 CALM      30.20S

$$

INZ006>009-017-018-025>027-300800-
NORTHEAST INDIANA

CITY           SKY/WX    TMP DP  RH WIND       PRES   REMARKS
ANGOLA *+      CLEAR     66  66 100 CALM      30.21S
AUBURN +       PTCLDY    66  63  88 CALM      30.22S
FORT WAYNE     PTCLDY    68  64  87 NE5       30.21R
HUNTINGTON +   CLEAR     67  65  96 NE3       30.20S

$$

INZ028-029-035-036-043>045-051>053-300800-
WEST CENTRAL INDIANA

CITY           SKY/WX    TMP DP  RH WIND       PRES   REMARKS
CRAWFORDSVL +  CLEAR     67  67 100 CALM      30.18R FOG
GREENCASTLE +  CLEAR     70  70 100 CALM      30.18S
LAFAYETTE      CLEAR     71  71 100 CALM      30.16S
TERRE HAUTE    CLEAR     70  68  93 CALM      30.16R FOG

$$

INZ030>032-037>040-046>048-054>057-064-065-300800-
CENTRAL INDIANA

CITY           SKY/WX    TMP DP  RH WIND       PRES   REMARKS
INDIANAPOLIS   CLEAR     76  70  82 E6        30.16S
-EAGLE CREEK   CLEAR     75  70  84 CALM      30.16F
KOKOMO *+      CLEAR     70  68  94 E3        30.18S
MARION +       CLEAR     70  68  93 E3        30.19S
MT COMFORT *+  CLEAR     68  68 100 CALM      30.18F
SHELBYVILLE    CLEAR     72  68  87 NE5       30.16S
ZIONSVILLE +   CLEAR     68  67  99 CALM      30.19S FOG

$$

INZ033-034-041-042-049-050-058-059-300800-
EAST CENTRAL INDIANA

CITY           SKY/WX    TMP DP  RH WIND       PRES   REMARKS
MUNCIE         CLEAR     71  68  90 SE5       30.18F

$$

INZ060-061-067>069-081>083-085>088-300800-
SOUTHWEST INDIANA

CITY           SKY/WX    TMP DP  RH WIND       PRES   REMARKS
EVANSVILLE     CLEAR     75  70  84 N5        30.12F
HUNTINGBURG *+ CLEAR     72  70  94 N3        30.13S

$$

INZ062-063-066-070>080-084-089>092-300800-
SOUTH CENTRAL AND SOUTHEAST INDIANA

CITY           SKY/WX    TMP DP  RH WIND       PRES   REMARKS
BLOOMINGTON    CLEAR     70  67  90 CALM      30.16S
MADISON *+     CLEAR     70  68  94 CALM      30.17S

$$




USA.gov is the U.S. government's official web portal to all federal, state and local government web resources and services.